Location: Unspecified
(50.7693°N, 0.0000°E)
Time: 20:44:46
(UTC+00:00)

Transit 2A - Pass Details

Date: 28 June 2019
Orbit: 595 x 964 km, 66.7° (Epoch: 22 July)

Event Time Altitude Azimuth Distance (km) Brightness Sun altitude
Rises 03:58:01 0° 308° (NW) 3,591 9.3 0.3°
Reaches altitude 10° 04:01:34 10° 327° (NNW) 2,594 8.8 0.7°
Maximum altitude 04:05:30 18° 8° (N) 2,034 8.9 1.2°
Drops below altitude 10° 04:09:14 10° 49° (NE) 2,440 11.1 1.7°
Sets 04:12:26 0° 69° (ENE) 3,294 11.2 2.1°
